W2PJ Weather Reports


Display with metric or nautical units.
time (UTC)temp
F
wind
direction
speed
MPH
gust
MPH
rain 1hr
in
rain 24hr
in
rain mn
in
humidity
%
barometer
mb
20260905042032 63 304 0.0 0.0 0.00 0.00 0.00 90 1013.3
20260905041602 63 304 0.0 0.0 0.00 0.00 0.00 89 1013.2
20260905041123 63 280 0.0 0.0 0.00 0.00 0.00 89 1013.3
20260905040505 64 310 0.0 0.0 0.00 0.00 0.00 89 1013.3
20260905040053 64 306 0.0 0.0 0.00 0.00 0.00 89 1013.2
20260905035508 64 288 0.0 0.0 0.00 0.00 0.00 88 1013.2
20260905035024 64 258 0.0 0.0 0.00 0.00 0.00 88 1013.2
20260905034539 64 252 0.0 0.0 0.00 0.00 0.00 88 1013.2
20260905034056 64 261 0.0 0.0 0.00 0.00 0.00 87 1013.2
20260905033616 64 256 0.0 0.0 0.00 0.00 0.00 87 1013.3
20260905033145 64 293 0.0 0.0 0.00 0.00 0.00 87 1013.2
20260905032504 64 283 0.0 0.0 0.00 0.00 0.00 86 1013.2
20260905032025 64 249 0.0 0.0 0.00 0.00 0.00 86 1013.0
20260905031551 64 245 0.0 0.0 0.00 0.00 0.00 86 1013.0
20260905031108 64 251 0.0 0.0 0.00 0.00 0.00 85 1013.0
20260905030621 64 241 0.0 0.0 0.00 0.00 0.00 85 1013.0
20260905030036 64 235 0.0 0.0 0.00 0.00 0.00 86 1013.1
20260905025555 64 257 0.0 0.0 0.00 0.00 0.00 85 1013.2
20260905025114 64 261 0.0 0.0 0.00 0.00 0.00 85 1013.1
20260905024533 64 260 0.0 0.0 0.00 0.00 0.00 85 1013.3
20260905024050 64 269 0.0 0.0 0.00 0.00 0.00 85 1013.3
20260905023610 64 266 0.0 0.0 0.00 0.00 0.00 84 1013.3
20260905023141 64 244 0.0 0.0 0.00 0.00 0.00 84 1013.2
20260905022524 64 244 0.0 0.0 0.00 0.00 0.00 84 1013.2
20260905022036 64 238 0.0 0.0 0.00 0.00 0.00 84 1013.3
20260905021555 64 240 0.0 0.0 0.00 0.00 0.00 84 1013.5
20260905021112 64 204 0.0 0.0 0.00 0.00 0.00 83 1013.5
20260905020634 64 204 0.0 0.0 0.00 0.00 0.00 83 1013.5
20260905020053 64 204 0.0 0.0 0.00 0.00 0.00 83 1013.5
20260905015604 64 204 0.0 0.0 0.00 0.00 0.00 83 1013.6
20260905015121 64 204 0.0 0.0 0.00 0.00 0.00 83 1013.5
20260905014543 64 204 0.0 0.0 0.00 0.00 0.00 83 1013.5
20260905014102 64 194 0.0 0.0 0.00 0.00 0.00 83 1013.5
20260905013626 64 272 0.0 0.0 0.00 0.00 0.00 83 1013.6
20260905013034 64 325 0.0 0.0 0.00 0.00 0.00 83 1013.6
20260905012552 65 327 0.0 0.0 0.00 0.00 0.00 82 1013.5
20260905012117 65 327 0.0 0.0 0.00 0.00 0.00 81 1013.5
20260905011636 65 326 0.0 0.0 0.00 0.00 0.00 80 1013.5
20260905011007 65 327 0.0 0.0 0.00 0.00 0.00 80 1013.5
20260905010527 65 327 0.0 0.0 0.00 0.00 0.00 81 1013.5
20260905010045 65 327 0.0 0.0 0.00 0.00 0.00 81 1013.5
20260905005606 65 327 0.0 0.0 0.00 0.00 0.00 80 1013.5
20260905005122 66 327 0.0 0.0 0.00 0.00 0.00 80 1013.5
20260905004538 66 326 0.0 0.0 0.00 0.00 0.00 80 1013.5
20260905004056 66 327 0.0 0.0 0.00 0.00 0.00 80 1013.4
20260905003620 66 327 0.0 0.0 0.00 0.00 0.00 80 1013.4
20260905003142 66 327 0.0 0.0 0.00 0.00 0.00 80 1013.5
20260905002513 66 31 0.0 0.0 0.00 0.00 0.00 80 1013.4
20260905002028 66 30 0.0 0.0 0.00 0.00 0.00 80 1013.3
20260905001606 66 30 0.0 0.0 0.00 0.00 0.00 79 1013.3
20260905001106 66 355 0.0 0.0 0.00 0.00 0.00 79 1013.3
20260905000623 66 355 0.0 0.0 0.00 0.00 0.00 79 1013.3
20260905000042 66 355 0.0 0.0 0.00 0.00 0.00 78 1013.1
20260904235558 66 355 0.0 0.0 0.00 0.00 0.00 78 1013.2
20260904235118 66 353 0.0 0.0 0.00 0.00 0.00 77 1013.3
20260904234642 66 353 0.0 0.0 0.00 0.00 0.00 77 1013.2
20260904234009 66 353 0.0 0.0 0.00 0.00 0.00 76 1013.2
20260904233530 67 353 0.0 0.0 0.00 0.00 0.00 76 1013.2
20260904233052 67 353 0.0 0.0 0.00 0.00 0.00 75 1013.1
20260904232600 67 354 0.0 0.0 0.00 0.00 0.00 74 1013.1
20260904232122 68 325 0.0 0.0 0.00 0.00 0.00 73 1013.1
20260904231535 68 297 0.0 0.0 0.00 0.00 0.00 72 1013.0
20260904231052 69 294 0.0 0.0 0.00 0.00 0.00 71 1013.0
20260904230616 69 341 0.0 0.0 0.00 0.00 0.00 70 1013.0
20260904230144 70 347 0.0 0.0 0.00 0.00 0.00 69 1012.9
20260904225504 71 31 0.0 0.0 0.00 0.00 0.00 67 1012.9
20260904225025 71 314 0.0 0.0 0.00 0.00 0.00 67 1012.9
20260904224557 71 15 0.0 0.0 0.00 0.00 0.00 66 1012.9
20260904224112 71 311 0.0 0.0 0.00 0.00 0.00 66 1012.9
20260904223632 71 5 0.0 0.0 0.00 0.00 0.00 66 1012.7
20260904223153 71 282 0.0 0.0 0.00 0.00 0.00 66 1012.7
20260904222521 72 356 0.0 0.0 0.00 0.00 0.00 66 1012.7
20260904222034 72 347 0.0 0.0 0.00 0.00 0.00 66 1012.7
20260904221607 72 3 0.0 0.0 0.00 0.00 0.00 66 1012.8
20260904221120 72 352 0.0 1.0 0.00 0.00 0.00 66 1012.7
20260904220502 72 335 0.0 6.0 0.00 0.00 0.00 64 1012.8
20260904220002 72 300 0.0 6.0 0.00 0.00 0.00 65 1012.8
20260904215523 72 294 0.0 5.0 0.00 0.00 0.00 65 1012.8
20260904215036 72 298 0.0 5.0 0.00 0.00 0.00 64 1012.8
20260904214553 72 293 0.0 7.0 0.00 0.00 0.00 64 1012.8
20260904214116 73 334 0.0 7.0 0.00 0.00 0.00 64 1012.8
20260904213634 73 335 0.0 6.0 0.00 0.00 0.00 64 1012.9
20260904213041 73 63 0.0 9.0 0.00 0.00 0.00 63 1012.8
20260904212602 73 296 0.0 9.0 0.00 0.00 0.00 63 1012.7
20260904212119 73 61 0.0 7.0 0.00 0.00 0.00 66 1012.8
20260904211647 73 309 1.0 7.0 0.00 0.00 0.00 66 1012.8
20260904211016 73 354 0.0 7.0 0.00 0.00 0.00 65 1012.8
20260904210530 73 95 0.0 8.0 0.00 0.00 0.00 69 1012.8
20260904210057 72 337 0.0 8.0 0.00 0.00 0.00 68 1012.9
20260904205612 71 349 0.0 5.0 0.00 0.00 0.00 69 1012.9
20260904205133 71 272 0.0 0.0 0.00 0.00 0.00 69 1012.9
20260904204547 71 310 0.0 6.0 0.00 0.00 0.00 68 1013.0
20260904204103 71 340 0.0 7.0 0.00 0.00 0.00 67 1012.9
20260904203620 72 32 0.0 9.0 0.00 0.00 0.00 67 1013.0
20260904203148 72 289 1.0 9.0 0.00 0.00 0.00 67 1013.1
20260904202516 72 313 0.0 10.0 0.00 0.00 0.00 68 1013.1
20260904202035 72 306 0.0 7.0 0.00 0.00 0.00 66 1013.2
20260904201613 72 287 0.0 8.0 0.00 0.00 0.00 66 1013.2
20260904201113 73 287 0.0 8.0 0.00 0.00 0.00 66 1013.2
20260904200637 73 318 0.0 12.0 0.00 0.00 0.00 65 1013.3
20260904200033 74 311 3.0 12.0 0.00 0.00 0.00 64 1013.3
20260904195552 74 238 0.0 4.0 0.00 0.00 0.00 65 1013.2
20260904195110 74 296 0.0 8.0 0.00 0.00 0.00 66 1013.3
20260904194630 74 9 0.0 8.0 0.00 0.00 0.00 65 1013.3
20260904194016 73 46 0.0 14.0 0.00 0.00 0.00 66 1013.4
20260904193528 73 351 3.0 14.0 0.00 0.00 0.00 65 1013.4
20260904193047 73 297 2.0 11.0 0.00 0.00 0.00 64 1013.4
20260904192605 74 254 0.0 10.0 0.00 0.00 0.00 65 1013.4
20260904192122 73 300 2.0 10.0 0.00 0.00 0.00 66 1013.5
20260904191538 73 285 0.0 9.0 0.00 0.00 0.00 67 1013.5
20260904191055 72 280 1.0 14.0 0.00 0.00 0.00 66 1013.5
20260904190614 73 288 0.0 14.0 0.00 0.00 0.00 65 1013.5
20260904190144 73 193 0.0 7.0 0.00 0.00 0.00 66 1013.5
20260904185514 73 356 0.0 8.0 0.00 0.00 0.00 69 1013.5
20260904185030 73 287 0.0 4.0 0.00 0.00 0.00 67 1013.6
20260904184552 72 73 0.0 0.0 0.00 0.00 0.00 68 1013.7
20260904184115 72 302 0.0 7.0 0.00 0.00 0.00 68 1013.7
20260904183635 72 330 0.0 7.0 0.00 0.00 0.00 67 1013.7
20260904183050 72 47 1.0 6.0 0.00 0.00 0.00 66 1013.8
20260904182604 73 306 0.0 2.0 0.00 0.00 0.00 65 1013.7
20260904182122 72 292 0.0 6.0 0.00 0.00 0.00 66 1013.7
20260904181541 72 55 0.0 10.0 0.00 0.00 0.00 66 1013.7
20260904181100 73 330 0.0 10.0 0.00 0.00 0.00 67 1013.7
20260904180619 73 309 1.0 10.0 0.00 0.00 0.00 67 1013.8
20260904180009 73 247 0.0 7.0 0.00 0.00 0.00 66 1013.8
20260904175516 73 249 0.0 7.0 0.00 0.00 0.00 69 1013.9
20260904175040 72 338 0.0 7.0 0.00 0.00 0.00 68 1014.0
20260904174549 72 311 0.0 0.0 0.00 0.00 0.00 69 1014.1
20260904174107 72 309 0.0 2.0 0.00 0.00 0.00 67 1014.1
20260904173622 73 323 0.0 3.0 0.00 0.00 0.00 65 1014.0
20260904173108 73 55 0.0 6.0 0.00 0.00 0.00 66 1014.0
20260904172602 73 294 0.0 11.0 0.00 0.00 0.00 65 1014.0
20260904172121 73 290 1.0 11.0 0.00 0.00 0.00 65 1014.0
20260904171553 73 280 0.0 9.0 0.00 0.00 0.00 65 1014.1
20260904171102 73 300 0.0 6.0 0.00 0.00 0.00 65 1014.1
20260904170620 73 268 0.0 7.0 0.00 0.00 0.00 67 1014.1
20260904170150 72 302 1.0 9.0 0.00 0.00 0.00 67 1014.2
20260904165512 73 314 0.0 10.0 0.00 0.00 0.00 66 1014.3
20260904165030 74 298 1.0 10.0 0.00 0.00 0.00 65 1014.1
20260904164547 73 261 0.0 11.0 0.00 0.00 0.00 68 1014.1
20260904164102 73 280 1.0 11.0 0.00 0.00 0.00 66 1014.0
20260904163622 73 285 0.0 8.0 0.00 0.00 0.00 68 1014.1
20260904163147 72 269 0.0 9.0 0.00 0.00 0.00 70 1014.3
20260904162511 72 317 0.0 9.0 0.00 0.00 0.00 69 1014.3
20260904162030 73 306 2.0 8.0 0.00 0.00 0.00 69 1014.2
20260904161619 72 14 2.0 8.0 0.00 0.00 0.00 70 1014.1
20260904161120 72 27 1.0 8.0 0.00 0.00 0.00 71 1014.1
20260904160510 71 299 0.0 9.0 0.00 0.00 0.00 73 1014.1
20260904160035 71 266 1.0 9.0 0.00 0.00 0.00 72 1014.2
20260904155554 72 294 1.0 8.0 0.00 0.00 0.00 71 1014.2
20260904155110 72 298 0.0 7.0 0.00 0.00 0.00 73 1014.2
20260904154634 71 292 0.0 8.0 0.00 0.00 0.00 74 1014.1
20260904154120 71 347 0.0 8.0 0.00 0.00 0.00 75 1014.1
20260904153636 71 307 0.0 5.0 0.00 0.00 0.00 74 1014.2
20260904153034 71 300 0.0 1.0 0.00 0.00 0.00 77 1014.2
20260904152550 71 293 0.0 8.0 0.00 0.00 0.00 77 1014.1
20260904152110 71 300 2.0 8.0 0.00 0.00 0.00 76 1014.1
20260904151516 71 349 0.0 5.0 0.00 0.00 0.00 76 1014.1
20260904151030 71 327 0.0 0.0 0.00 0.00 0.00 78 1014.2
20260904150548 71 79 0.0 0.0 0.00 0.00 0.00 79 1014.2
20260904150114 70 276 0.0 3.0 0.00 0.00 0.00 77 1014.3
20260904145636 70 300 0.0 6.0 0.00 0.00 0.00 78 1014.3
20260904145021 70 303 0.0 0.0 0.00 0.00 0.00 81 1014.3
20260904144549 69 318 0.0 7.0 0.00 0.00 0.00 80 1014.1
20260904144110 69 300 0.0 7.0 0.00 0.00 0.00 80 1014.2
20260904143632 69 269 0.0 1.0 0.00 0.00 0.00 81 1014.0
20260904143033 69 292 0.0 5.0 0.00 0.00 0.00 83 1014.3
20260904142550 69 296 0.0 5.0 0.00 0.00 0.00 85 1014.3
20260904142109 69 314 0.0 3.0 0.00 0.00 0.00 84 1014.2
20260904141633 69 207 0.0 0.0 0.00 0.00 0.00 86 1014.2
20260904141012 69 324 0.0 1.0 0.00 0.00 0.00 87 1014.4
20260904140530 68 301 0.0 1.0 0.00 0.00 0.00 87 1014.3
20260904140044 68 271 0.0 4.0 0.00 0.00 0.00 87 1014.3
20260904135602 68 292 0.0 4.0 0.00 0.00 0.00 87 1014.3
20260904135113 68 314 0.0 1.0 0.00 0.00 0.00 88 1014.3
20260904134503 68 314 0.0 3.0 0.00 0.00 0.00 88 1014.5
20260904134016 67 354 0.0 3.0 0.00 0.00 0.00 89 1014.6
20260904133536 67 324 0.0 2.0 0.00 0.00 0.00 90 1014.5
20260904133048 67 273 0.0 1.0 0.00 0.00 0.00 90 1014.6
20260904132603 67 293 0.0 0.0 0.00 0.00 0.00 90 1014.5
20260904132120 67 332 0.0 0.0 0.00 0.00 0.00 91 1014.2
20260904131505 67 257 0.0 1.0 0.00 0.00 0.00 91 1014.2
20260904131023 66 311 0.0 0.0 0.00 0.00 0.00 92 1014.1
20260904130536 66 303 0.0 0.0 0.00 0.00 0.00 92 1014.1
20260904130050 66 300 0.0 0.0 0.00 0.00 0.00 92 1014.1
20260904125613 66 264 0.0 0.0 0.00 0.00 0.00 92 1014.1
20260904125130 65 283 0.0 0.0 0.00 0.00 0.00 92 1014.2
20260904124526 65 274 0.0 0.0 0.00 0.00 0.00 92 1014.4
20260904124050 65 306 0.0 0.0 0.00 0.00 0.00 92 1014.4
20260904123609 65 307 0.0 0.0 0.00 0.00 0.00 92 1014.4
20260904123134 65 259 0.0 0.0 0.00 0.00 0.00 92 1014.5
20260904122508 65 275 0.0 0.0 0.00 0.00 0.00 92 1014.5
20260904122024 64 269 0.0 0.0 0.00 0.00 0.00 92 1014.5
20260904121539 64 286 0.0 0.0 0.00 0.00 0.00 92 1014.4
20260904121058 64 272 0.0 0.0 0.00 0.00 0.00 92 1014.4
20260904120618 64 271 0.0 0.0 0.00 0.00 0.00 92 1014.3
20260904120145 64 248 0.0 0.0 0.00 0.00 0.00 92 1014.3
20260904115508 64 292 0.0 0.0 0.00 0.00 0.00 92 1014.3
20260904115030 64 150 0.0 0.0 0.00 0.00 0.00 92 1014.4
20260904114550 64 299 0.0 0.0 0.00 0.00 0.00 92 1014.3
20260904114117 64 294 0.0 0.0 0.00 0.00 0.00 92 1014.3
20260904113502 64 349 0.0 0.0 0.00 0.00 0.00 92 1014.2
20260904113047 64 275 0.0 0.0 0.00 0.00 0.00 92 1014.2
20260904112605 64 241 0.0 0.0 0.00 0.00 0.00 92 1014.2
20260904112119 64 269 0.0 0.0 0.00 0.00 0.00 92 1014.2
20260904111643 64 271 0.0 0.0 0.00 0.00 0.00 92 1014.1
20260904111014 64 255 0.0 0.0 0.00 0.00 0.00 92 1014.1
20260904110532 64 249 0.0 0.0 0.00 0.00 0.00 92 1014.0
20260904110050 63 268 0.0 0.0 0.00 0.00 0.00 92 1013.9
20260904105608 63 292 0.0 1.0 0.00 0.00 0.00 92 1013.8
20260904105126 63 300 0.0 1.0 0.00 0.00 0.00 91 1013.8
20260904104646 63 283 0.0 0.0 0.00 0.00 0.00 91 1013.7
20260904104019 64 286 0.0 0.0 0.00 0.00 0.00 91 1013.9
20260904103539 64 313 0.0 0.0 0.00 0.00 0.00 91 1013.9
20260904103048 64 299 0.0 0.0 0.00 0.00 0.00 91 1013.9
20260904102606 64 277 0.0 0.0 0.00 0.00 0.00 91 1013.7
20260904102127 64 266 0.0 0.0 0.00 0.00 0.00 91 1013.6
20260904101644 64 290 0.0 0.0 0.00 0.00 0.00 91 1013.5
20260904101004 64 287 0.0 0.0 0.00 0.00 0.00 91 1013.4
20260904100530 64 273 0.0 0.0 0.00 0.00 0.00 91 1013.3
20260904100045 64 276 0.0 0.0 0.00 0.00 0.00 91 1013.4
20260904095602 64 290 0.0 0.0 0.00 0.00 0.00 91 1013.3
20260904095121 64 300 0.0 0.0 0.00 0.00 0.00 91 1013.2
20260904094639 64 259 0.0 0.0 0.00 0.00 0.00 91 1013.2
20260904094018 64 251 0.0 0.0 0.00 0.00 0.00 91 1013.2
20260904093542 64 249 0.0 0.0 0.00 0.00 0.00 91 1013.2
20260904093114 64 258 0.0 0.0 0.00 0.00 0.00 91 1013.1
20260904092632 65 238 0.0 0.0 0.00 0.00 0.00 91 1013.2
20260904092018 65 233 0.0 0.0 0.00 0.00 0.00 91 1013.1
20260904091556 65 219 0.0 0.0 0.00 0.00 0.00 91 1013.1
20260904091116 65 238 0.0 0.0 0.00 0.00 0.00 91 1013.0
20260904090503 65 258 0.0 0.0 0.00 0.00 0.00 91 1013.0
20260904090158 65 249 0.0 0.0 0.00 0.00 0.00 91 1013.0
20260904085513 65 294 0.0 0.0 0.00 0.00 0.00 91 1013.0
20260904085031 65 290 0.0 0.0 0.00 0.00 0.00 91 1013.0
20260904084602 65 299 0.0 0.0 0.00 0.00 0.00 91 1012.9
20260904084126 65 254 0.0 0.0 0.00 0.00 0.00 91 1012.8
20260904083503 65 299 0.0 0.0 0.00 0.00 0.00 91 1012.8
20260904083050 65 289 0.0 0.0 0.00 0.00 0.00 91 1012.8
20260904082610 65 283 0.0 0.0 0.00 0.00 0.00 91 1012.8
20260904082134 65 278 0.0 0.0 0.00 0.00 0.00 91 1012.6
20260904081607 65 278 0.0 0.0 0.00 0.00 0.00 91 1012.6
20260904081104 66 273 0.0 0.0 0.00 0.00 0.00 91 1012.6
20260904080619 66 285 0.0 0.0 0.00 0.00 0.00 91 1012.5
20260904080140 66 293 0.0 0.0 0.00 0.00 0.00 91 1012.5
20260904075506 66 258 0.0 0.0 0.00 0.00 0.00 91 1012.4
20260904075019 66 258 0.0 0.0 0.00 0.00 0.00 91 1012.5
20260904074601 66 292 0.0 0.0 0.00 0.00 0.00 92 1012.5
20260904074106 66 292 0.0 0.0 0.00 0.00 0.00 92 1012.4
20260904073624 66 276 0.0 0.0 0.00 0.00 0.00 92 1012.4
20260904073148 66 282 0.0 0.0 0.00 0.00 0.00 92 1012.4
20260904072514 66 283 0.0 0.0 0.00 0.00 0.00 92 1012.4
20260904072036 66 262 0.0 0.0 0.00 0.00 0.00 92 1012.3
20260904071552 66 257 0.0 0.0 0.00 0.00 0.00 92 1012.3
20260904071106 66 258 0.0 0.0 0.00 0.00 0.00 92 1012.3
20260904070625 66 262 0.0 0.0 0.00 0.00 0.00 92 1012.2
20260904070034 66 323 0.0 0.0 0.00 0.00 0.00 92 1012.3
20260904065549 66 323 0.0 0.0 0.00 0.00 0.00 92 1012.3
20260904065104 66 323 0.0 0.0 0.00 0.00 0.00 92 1012.3
20260904064630 66 323 0.0 0.0 0.00 0.00 0.00 92 1012.3
20260904064017 66 323 0.0 0.0 0.00 0.00 0.00 92 1012.3
20260904063539 66 323 0.0 0.0 0.00 0.00 0.00 92 1012.3
20260904063106 66 323 0.0 0.0 0.00 0.00 0.00 92 1012.3
20260904062622 66 323 0.0 0.0 0.00 0.00 0.00 92 1012.3
20260904062003 65 323 0.0 0.0 0.00 0.00 0.00 92 1012.3
20260904061516 65 323 0.0 0.0 0.00 0.00 0.00 92 1012.5
20260904061032 65 103 0.0 0.0 0.00 0.00 0.00 92 1012.6
20260904060548 65 103 0.0 0.0 0.00 0.00 0.00 92 1012.7
20260904060140 66 103 0.0 0.0 0.00 0.00 0.00 92 1012.7
20260904055507 66 103 0.0 0.0 0.00 0.00 0.00 92 1012.7
20260904055024 66 108 0.0 0.0 0.00 0.00 0.00 92 1012.7
20260904054554 66 107 0.0 0.0 0.00 0.00 0.00 92 1012.8
20260904054113 66 107 0.0 0.0 0.00 0.00 0.00 92 1012.9
20260904053630 66 108 0.0 0.0 0.00 0.00 0.00 92 1012.9
20260904053014 66 107 0.0 0.0 0.00 0.00 0.00 92 1013.0
20260904052533 66 108 0.0 0.0 0.00 0.00 0.00 92 1013.0
20260904052052 66 108 0.0 0.0 0.00 0.00 0.00 92 1013.0
20260904051611 66 107 0.0 0.0 0.00 0.00 0.00 92 1013.1
20260904051003 66 107 0.0 0.0 0.00 0.00 0.00 92 1013.1
20260904050524 66 142 0.0 0.0 0.00 0.00 0.00 92 1013.1
20260904050047 66 142 0.0 0.0 0.00 0.00 0.00 92 1013.2
20260904045601 66 141 0.0 0.0 0.00 0.00 0.00 92 1013.2
20260904045118 66 115 0.0 0.0 0.00 0.00 0.00 92 1013.2
20260904044534 66 150 0.0 0.0 0.00 0.00 0.00 92 1013.2
20260904044056 66 137 0.0 0.0 0.00 0.00 0.00 92 1013.1
20260904043617 66 128 0.0 0.0 0.00 0.00 0.00 91 1013.0
20260904043138 66 145 0.0 0.0 0.00 0.00 0.00 91 1013.1